Weather History for KFLL - April, 2012

Change the Weather History Date:

Monday, April 30, 2012

  Actual Average Record
Temperature  
Mean Temperature 74 °F 78 °F  
Max Temperature 75 °F 84 °F 97 °F (1971)
Min Temperature 72 °F 72 °F 51 °F (1916)
Degree Days  
Heating Degree Days 0 0  
Month to date heating degree days 0 0  
Since 1 July heating degree days 112  
Cooling Degree Days 9 13  
Month to date cooling degree days 310 337  
Year to date cooling degree days 1060 947  
Growing Degree Days 23 (Base 50)    
Moisture  
Dew Point 70 °F    
Average Humidity 88    
Maximum Humidity 93    
Minimum Humidity 82    
Precipitation  
Precipitation 0.03 in 0.06 in 3.05 in (1964)
Month to date precipitation 5.14 2.89  
Year to date precipitation 8.42 12.84  
Snow  
Snow 0.00 in - - ()
Month to date snowfall 0.0  
Since 1 July snowfall 0.0  
Snow Depth 0.00 in    
Sea Level Pressure  
Sea Level Pressure 30.01 in    
Wind  
Wind Speed 20 mph (East)    
Max Wind Speed 24 mph    
Max Gust Speed 32 mph    
Visibility 7 miles    
Events Rain    
T = Trace of Precipitation, MM = Missing Value Source: NWS Daily Summary

Daily Weather History Graph

Daily Weather History Graph

Search for Another Location

Airport or City:

Trip Planner

Search our weather history database for the weather conditions in past years. The results will help you decide how hot, cold, wet, or windy it might be!

Date:

Astronomy

Apr. 30, 2012 Rise Set
Actual Time 6:43 AM EDT 7:52 PM EDT
Civil Twilight 6:19 AM EDT 8:16 PM EDT
Nautical Twilight 5:50 AM EDT 8:45 PM EDT
Astronomical Twilight 5:21 AM EDT 9:14 PM EDT
Moon 2:21 PM EDT (4/30) 2:30 AM EDT (4/30)
Length of Visible Light 13h 56m
Length of Day
13h 08m
Waxing Gibbous, 63% of the Moon is Illuminated
Apr 30
Waxing Gibbous
May 5
Full
May 12
Last Quarter
May 20
New
May 28
First Quarter

Hourly Weather History & Observations

Time (EDT) Temp. Dew Point Humidity Pressure Visibility Wind Dir Wind Speed Gust Speed Precip Events Conditions
12:53 AM 73.9 °F 69.1 °F 85% 30.02 in 10.0 mi East 16.1 mph 25.3 mph 0.01 in   Overcast
1:53 AM 73.9 °F 68.0 °F 82% 30.01 in 10.0 mi East 21.9 mph 29.9 mph N/A   Overcast
2:53 AM 73.0 °F 69.1 °F 87% 29.99 in 10.0 mi East 17.3 mph - 0.02 in Rain Light Rain
3:53 AM 73.0 °F 69.1 °F 87% 29.99 in 9.0 mi East 21.9 mph 27.6 mph 0.00 in Rain Light Rain
4:53 AM 73.0 °F 68.0 °F 84% 29.98 in 10.0 mi East 23.0 mph 28.8 mph 0.00 in Rain Light Rain
5:53 AM 73.0 °F 69.1 °F 87% 29.98 in 10.0 mi East 17.3 mph - 0.00 in   Mostly Cloudy
6:53 AM 73.9 °F 69.1 °F 85% 30.00 in 10.0 mi East 20.7 mph 26.5 mph N/A   Overcast
7:53 AM 73.9 °F 69.1 °F 85% 30.01 in 10.0 mi East 17.3 mph 27.6 mph N/A   Mostly Cloudy
8:00 AM 73.4 °F 69.8 °F 88% 30.02 in 10.0 mi East 19.6 mph 27.6 mph N/A   Overcast
8:41 AM 73.4 °F 69.8 °F 88% 30.02 in 10.0 mi East 16.1 mph - 0.00 in   Overcast
8:53 AM 75.0 °F 70.0 °F 84% 30.02 in 10.0 mi East 17.3 mph 28.8 mph 0.00 in   Overcast
9:35 AM 73.4 °F 69.8 °F 88% 30.02 in 10.0 mi ESE 20.7 mph 31.1 mph 0.00 in Rain Light Rain
9:53 AM 73.9 °F 70.0 °F 87% 30.02 in 10.0 mi East 18.4 mph 25.3 mph 0.00 in Rain Light Rain
10:24 AM 73.4 °F 71.6 °F 94% 30.03 in 2.0 mi ESE 20.7 mph - 0.00 in Rain Light Rain
10:38 AM 73.4 °F 69.8 °F 88% 30.03 in 4.0 mi ESE 23.0 mph 29.9 mph 0.00 in Rain Light Rain
10:53 AM 73.0 °F 70.0 °F 90% 30.04 in 3.0 mi ESE 20.7 mph 31.1 mph 0.00 in Rain Light Rain
11:23 AM 73.4 °F 69.8 °F 88% 30.04 in 4.0 mi ESE 19.6 mph 32.2 mph 0.00 in Rain Light Rain
11:53 AM 72.0 °F 70.0 °F 93% 30.04 in 7.0 mi East 21.9 mph 29.9 mph 0.00 in Rain Light Rain
12:32 PM 73.4 °F 69.8 °F 88% 30.03 in 10.0 mi East 20.7 mph 31.1 mph 0.00 in Rain Light Rain
12:53 PM 73.9 °F 69.1 °F 85% 30.02 in 10.0 mi East 24.2 mph 32.2 mph 0.00 in   Mostly Cloudy
1:53 PM 75.0 °F 70.0 °F 84% 30.02 in 10.0 mi East 19.6 mph 31.1 mph 0.00 in Rain Light Rain
2:28 PM 73.4 °F 69.8 °F 88% 30.02 in 10.0 mi East 20.7 mph 31.1 mph 0.00 in Rain Light Rain
2:53 PM 75.0 °F 70.0 °F 84% 30.02 in 8.0 mi East 19.6 mph 28.8 mph 0.00 in Rain Light Rain
3:16 PM 73.4 °F 69.8 °F 88% 30.01 in 4.0 mi East 21.9 mph 28.8 mph 0.01 in Rain Light Rain
3:26 PM 73.4 °F 69.8 °F 88% 30.02 in 5.0 mi East 21.9 mph 28.8 mph 0.01 in Rain Light Rain
3:43 PM 73.4 °F 71.6 °F 94% 30.01 in 3.0 mi East 20.7 mph 27.6 mph 0.01 in Rain Light Rain
3:51 PM 73.4 °F 69.8 °F 88% 30.01 in 6.0 mi East 24.2 mph 31.1 mph 0.01 in Rain Light Rain
3:53 PM 73.9 °F 70.0 °F 87% 30.01 in 6.0 mi East 19.6 mph 31.1 mph 0.01 in Rain Light Rain
4:42 PM 73.4 °F 71.6 °F 94% 30.00 in 10.0 mi East 17.3 mph 26.5 mph 0.00 in Rain Light Rain
4:53 PM 75.0 °F 70.0 °F 84% 30.00 in 10.0 mi East 19.6 mph 27.6 mph 0.00 in   Overcast
5:00 PM 75.2 °F 69.8 °F 83% 30.00 in 10.0 mi East 20.7 mph 26.5 mph N/A   Overcast
5:30 PM 73.4 °F 71.6 °F 94% 29.99 in 9.0 mi East 21.9 mph - 0.00 in Rain Light Rain
5:33 PM 73.4 °F 71.6 °F 94% 30.00 in 9.0 mi East 21.9 mph 28.8 mph 0.00 in Rain Light Rain
5:50 PM 73.4 °F 71.6 °F 94% 30.00 in 1.5 mi East 25.3 mph 31.1 mph 0.03 in Rain Heavy Rain
5:53 PM 73.0 °F 71.1 °F 93% 30.00 in 1.5 mi East 23.0 mph 29.9 mph 0.04 in Rain Heavy Rain
5:58 PM 71.6 °F 71.6 °F 100% 30.00 in 1.2 mi East 23.0 mph 29.9 mph 0.04 in Rain Heavy Rain
6:06 PM 73.4 °F 71.6 °F 94% 30.00 in 2.0 mi East 25.3 mph 32.2 mph 0.04 in Rain Rain
6:09 PM 73.4 °F 71.6 °F 94% 30.00 in 3.0 mi East 20.7 mph 32.2 mph 0.04 in Rain Rain
6:10 PM 73.4 °F 71.6 °F 94% 30.00 in 2.5 mi East 23.0 mph 32.2 mph 0.04 in Rain Rain
6:13 PM 71.6 °F 69.8 °F 94% 30.00 in 3.0 mi East 23.0 mph 31.1 mph 0.04 in Rain Rain
6:18 PM 71.6 °F 69.8 °F 94% 30.00 in 4.0 mi East 21.9 mph 28.8 mph 0.04 in Rain Light Rain
6:53 PM 72.0 °F 70.0 °F 93% 30.01 in 4.0 mi ESE 19.6 mph 27.6 mph 0.05 in Rain Light Rain
7:04 PM 71.6 °F 69.8 °F 94% 30.01 in 3.0 mi ESE 17.3 mph - 0.00 in Rain Light Rain
7:16 PM 71.6 °F 69.8 °F 94% 30.01 in 4.0 mi ESE 13.8 mph - 0.00 in Rain Light Rain
7:35 PM 73.4 °F 71.6 °F 94% 30.01 in 7.0 mi ESE 17.3 mph 26.5 mph 0.00 in Rain Light Rain
7:53 PM 73.0 °F 70.0 °F 90% 30.01 in 5.0 mi ESE 17.3 mph 23.0 mph 0.00 in Rain Light Rain
8:27 PM 73.4 °F 69.8 °F 88% 30.01 in 10.0 mi East 23.0 mph 27.6 mph 0.00 in   Overcast
8:53 PM 73.9 °F 70.0 °F 87% 30.02 in 10.0 mi ESE 23.0 mph 29.9 mph 0.00 in   Overcast
9:53 PM 73.9 °F 68.0 °F 82% 30.04 in 10.0 mi ESE 19.6 mph - N/A   Overcast
10:53 PM 75.0 °F 69.1 °F 82% 30.04 in 10.0 mi East 16.1 mph 24.2 mph N/A   Mostly Cloudy
11:13 PM 75.2 °F 69.8 °F 83% 30.04 in 10.0 mi East 17.3 mph 23.0 mph N/A   Mostly Cloudy
11:48 PM 75.2 °F 69.8 °F 83% 30.04 in 10.0 mi ESE 16.1 mph 26.5 mph N/A   Overcast
11:53 PM 75.0 °F 69.1 °F 82% 30.04 in 10.0 mi ESE 21.9 mph 26.5 mph N/A   Overcast